Regional Weather Roundup
Issued by NWS

Home | Current Version | Previous Version | Text Only | Print | Product List | Glossary On
Versions: 1 2 3 4 5 6 7 8 9 10 11 12 13 14 15 16 17 18 19 20 21 22 23 24 25 26 27 28 29 30 31 32 33 34 35 36 37 38 39 40 41 42 43 44 45 46 47 48 49 50
000
ASUS43 KLOT 201809
RWRIL

ILLINOIS REGIONAL WEATHER ROUNDUP
NATIONAL WEATHER SERVICE CHICAGO/ROMEOVILLE IL
100 PM CDT SUN JUN 20 2021

NOTE: "FAIR" INDICATES FEW OR NO CLOUDS BELOW 12,000 FEET WITH NO
SIGNIFICANT WEATHER AND/OR OBSTRUCTIONS TO VISIBILITY.

* THESE STATIONS ARE NOT UNDER NWS QUALITY CONTROL. THEY ALSO MAY NOT
  REPORT WEATHER SUCH AS PRECIPITATION OR FOG.

ILZ001-002-007-009-015-016-024-201900-
NORTHWEST ILLINOIS

CITY           SKY/WX    TMP DP  RH WIND       PRES   REMARKS
MOLINE         CLOUDY    77  67  71 S3        29.70R
6HR MIN TEMP:  67; 6HR MAX TEMP:  79; 6HR PCP: TRACE;

STERLING*      PTSUNNY   78  65  63 VRB6      29.70R HX  80
SAVANNA*       LGT RAIN  72  64  78 SW5       29.70R
$$

ILZ003-004-008-010-011-017-018-201900-
NORTH CENTRAL ILLINOIS

CITY           SKY/WX    TMP DP  RH WIND       PRES   REMARKS
ROCKFORD       CLOUDY    79  65  62 SE8       29.67F HX  81
6HR MIN TEMP:  64; 6HR MAX TEMP:  79; 6HR PCP: TRACE;

FREEPORT*      CLOUDY    74  63  68 S6        29.71R
ROCHELLE*      PTSUNNY   75  69  79 S10       29.68F
DE KALB*       PTSUNNY   76  69  80 SE9       29.69S HAZE
PERU*          PTSUNNY  N/A N/A N/A S9        29.70R
$$

ILZ005-006-012>014-019>023-201900-
NORTHEAST ILLINOIS

CITY           SKY/WX    TMP DP  RH WIND       PRES   REMARKS
CHICAGO-OHARE  CLOUDY    80  64  58 E6        29.68F HX  82
6HR MIN TEMP:  67; 6HR MAX TEMP:  80;

CHICAGO-MIDWAY PTSUNNY   80  65  59 S8        29.69F HX  82
6HR MIN TEMP:  70; 6HR MAX TEMP:  80;

AURORA         PTSUNNY   78  68  71 S10       29.68F HX  80
6HR MIN TEMP:  64; 6HR MAX TEMP:  78;

JOLIET*        PTSUNNY   80  71  74 CALM      29.69F HX  84
WAUKEGAN       PTSUNNY   75  62  64 E8        29.67F
6HR MIN TEMP:  63; 6HR MAX TEMP:  78;

DUPAGE AIRPORT PTSUNNY   78  70  76 S12       29.68F HX  80
6HR MIN TEMP:  63; 6HR MAX TEMP:  79;

KANKAKEE*      MOSUNNY   83  73  71 SW8       29.70F HX  90
WHEELING       PTSUNNY   79  66  64 E7        29.68F HX  81
6HR MIN TEMP:  65; 6HR MAX TEMP:  80;

MORRIS*        PTSUNNY   80  71  75 CALM      29.68F HX  83
ROMEOVILLE*    PTSUNNY   78  72  80 S6        29.70F HX  81
LANSING*       PTSUNNY   79  71  77 CALM      29.70F HX  82
NORTHERLY ISL*   N/A     70  65  84 SE1         N/A
$$

LMZ740>746-201900-
SOUTHERN LAKE MICHIGAN

STATION/POSITION SKY/WX   TEMP    WIND        PRES    VSBY  WAVE
                          AIR SEA DIR/SP/G                  HT/PER
                          (F)     (DEG/KT/KT) (MB)    (MI)  (FT/S)
WINTHROP HARBOR            69 66                N/A           1/ 4
WAUKEGAN HARBOR            68 67                N/A           1
WILMETTE HARBOR               68   70/  6/ 10 1004.4          1/ 4
HARRISON CRIB              68      90/ 10/ 11   N/A
NORTHERLY ISL              71      50/  1/  6   N/A
CALUMET HARBOR                     50/  7/  8 1005.4
BURNS HARBOR               72      60/  4/  5 1006.4F
MICHIGAN CITY              70      40/  5/  6 1006.1F
ST. JOSEPH                 69 70   CALM  /  2 1006.2F         1/ 4
$$

ILZ025>027-034>036-040-047-049-050-058-095>099-201900-
WEST-CENTRAL ILLINOIS

CITY           SKY/WX    TMP DP  RH WIND       PRES   REMARKS
QUINCY         CLOUDY    80  68  66 S5        29.72R HX  83
GALESBURG*     CLOUDY    73  65  75 SW7       29.75R
MACOMB*        CLOUDY    76  69  78 SW6       29.76R
JACKSONVILLE*  PTSUNNY   83  73  71 CALM      29.73R HX  88
PITTSFIELD*    MOSUNNY   85  72  66 SW9       29.73F HX  90
$$

ILZ028>032-037-038-041>044-048-051>054-059>061-201900-
CENTRAL ILLINOIS

CITY           SKY/WX    TMP DP  RH WIND       PRES   REMARKS
PONTIAC        MOSUNNY   81  71  71 S6        29.69F HX  85
BLOOMINGTON    MOSUNNY   83  68  60 E6        29.70F HX  86
DECATUR        MOSUNNY   85  67  54 SE5       29.72F HX  87
PEORIA         PTSUNNY   80  67  64 CALM      29.71R HX  82
6HR MIN TEMP:  70; 6HR MAX TEMP:  81;

LACON*         PTSUNNY   78  69  73 S3        29.68R HX  81
LINCOLN*       MOSUNNY   82  63  51 S7        29.72S HX  83
SPRINGFIELD    MOSUNNY   84  71  65 S9        29.72F HX  89
6HR MIN TEMP:  71; 6HR MAX TEMP:  84;

TAYLORVILLE    PTSUNNY   82  72  69 S6        29.72F HX  87
$$

ILZ033-039-045-046-055>057-062-063-201900-
EAST-CENTRAL ILLINOIS

CITY           SKY/WX    TMP DP  RH WIND       PRES   REMARKS
CHAMPAIGN      MOSUNNY   86  68  54 CALM      29.72F HX  89
DANVILLE*      MOSUNNY   86  71  62 W6        29.72F HX  91
RANTOUL*       MOSUNNY   85  71  62 SW3       29.71F HX  89
MATTOON        MOSUNNY   85  71  63 VRB7      29.72F HX  90
PARIS*         PTSUNNY   84  76  76 SW7       29.73F HX  92
$$

ILZ079-100>102-201900-
SOUTHWEST ILLINOIS

CITY           SKY/WX    TMP DP  RH WIND       PRES   REMARKS
ALTON          MOSUNNY   90  73  58 SW10      29.72F HX  98
CAHOKIA*       MOSUNNY   91  70  49 S13G20    29.71F HX  96
$$

ILZ064>066-069>071-074>076-080>082-084>086-088>090-092>094-201900-
SOUTH-CENTRAL ILLINOIS

CITY           SKY/WX    TMP DP  RH WIND       PRES   REMARKS
CARBONDALE     MOSUNNY   88  70  55 S14G22    29.75F HX  93
6HR MIN TEMP:  75; 6HR MAX TEMP:  89;

CAIRO*         MOSUNNY   89  68  49 W9        29.77F HX  93
EFFINGHAM*     MOSUNNY   88  73  61 S8        29.74F HX  95
MARION         MOSUNNY   88  72  58 SW12G21   29.75F HX  94
MT. VERNON     PTSUNNY   90  72  55 SW10G17   29.74F HX  97
CENTRALIA*     PTSUNNY   91  71  53 SW10G20   29.73F HX  97
SALEM*         PTSUNNY   90  70  52 SW8       29.74F HX  95
$$

ILZ067-068-072-073-078-083-087-091-201900-
SOUTHEAST ILLINOIS

CITY           SKY/WX    TMP DP  RH WIND       PRES   REMARKS
LAWRENCEVILLE  PTSUNNY   88  75  65 S10G16    29.73F HX  97
FLORA*         SUNNY     88  73  62 W10       29.73F HX  96
FAIRFIELD*     PTSUNNY   88  72  59 SW5       29.73F HX  94
HARRISBURG*    MOSUNNY   88  67  49 SW10      29.75F HX  91
ROBINSON*      MOSUNNY   87  74  64 S7        29.74F HX  95
$$

ABBREVIATIONS USED IN REMARKS
   TC - TEMPERATURE IN CELSIUS
  WCI - WIND CHILL INDEX
   HX - HEAT INDEX
  VSB - VISIBILITY
$$




USA.gov is the U.S. government's official web portal to all federal, state and local government web resources and services.